Flag for Netherlands Weather past 2 weeks in Amersfoort, Netherlands

Now
64 °F

Overcast.


Feels Like: 64 °F
Forecast: 57 / 79 °F
Wind: 5 mph from East

Location: Deelen

Current Time: Jul 25, 2014 at 3:42:49 AM

Latest Report: Jul 25, 2014 at 2:55 AM


Visibility: N/A

Pressure: 30.01 "Hg

Humidity: 73%

Dew point: 55 °F

Location of AmersfoortLocation

Historic Weather in Amersfoort — Graph

°F

Amersfoort temperature yesterday

Maximum temperature yesterday: 81 °F (at 2:55 PM)
Minimum temperature yesterday: 63 °F (at 4:25 AM)
Average temperature yesterday: 71 °F

Past Weeks' High & Low Weather Summary

 TemperatureHumidityPressure
High93 °F (Jul 19, 5:25 PM)100% (Jul 10, 2:25 AM)30.18 "Hg (Jul 10, 2:25 AM)
Low54 °F (Jul 16, 5:25 AM)26% (Jul 19, 2:25 PM)29.71 "Hg (Jul 13, 3:55 PM)
Average70 °F76%29.96 "Hg
* Reported Jul 10 2:25 AM — Jul 25 2:25 AM, Amersfoort, Weather by CustomWeather, © 2014

Note: Actual official high and low records may vary slightly from our data, if they occured in-between our weather recording intervals... More about our weather records

Advertising

Amersfoort weather history for previous 24 hours

 ConditionsComfort  
Time TempWeatherWind HumidityBarometerVisibility
2:25 AM
Jul 25
64 °FOvercast.5 mph73%30.01 "HgN/A
1:55 AM66 °FPartly cloudy.5 mph68%30.01 "HgN/A
1:25 AM66 °FPartly cloudy.7 mph68%30.01 "HgN/A
12:55 AM64 °FPassing clouds.7 mph78%30.01 "HgN/A
12:25 AM64 °FOvercast.6 mph78%30.01 "HgN/A
11:55 PM
Jul 24
64 °FPassing clouds.3 mph78%30.01 "HgN/A
11:25 PM66 °FPassing clouds.6 mph73%30.01 "HgN/A
10:55 PM66 °FMild.6 mph73%30.01 "HgN/A
10:25 PM68 °FScattered clouds.8 mph69%30.01 "HgN/A
9:55 PM70 °FPassing clouds.8 mph64%30.01 "HgN/A
9:25 PM73 °FBroken clouds.9 mph57%29.98 "HgN/A
8:55 PM75 °FCloudy.13 mph54%29.98 "HgN/A
8:25 PM77 °FBroken clouds.10 mph51%29.98 "HgN/A
7:55 PM77 °FPassing clouds.13 mph51%29.98 "HgN/A
7:25 PM77 °FPassing clouds.10 mph47%29.98 "HgN/A
6:55 PM75 °FMild.13 mph47%29.98 "HgN/A
6:25 PM75 °FPassing clouds.13 mph44%29.98 "HgN/A
5:55 PM79 °FPassing clouds.16 mph42%29.98 "HgN/A
5:25 PM79 °FPleasantly warm.14 mph37%29.98 "HgN/A
4:55 PM79 °FScattered clouds.15 mph42%29.98 "HgN/A
4:25 PM79 °FPassing clouds.18 mph48%29.98 "HgN/A
3:55 PM79 °FPartly sunny.18 mph45%29.98 "HgN/A
3:25 PM77 °FScattered clouds.15 mph44%30.01 "HgN/A
2:55 PM81 °FPassing clouds.15 mph45%30.01 "HgN/A
2:25 PM77 °FBroken clouds.14 mph44%30.01 "HgN/A
1:55 PM75 °FPassing clouds.13 mph50%30.01 "HgN/A
1:25 PM79 °FWarm.14 mph51%30.01 "HgN/A
12:55 PM77 °FPassing clouds.13 mph51%30.01 "HgN/A
12:25 PM75 °FPassing clouds.14 mph54%30.01 "HgN/A
11:55 AM73 °FPassing clouds.15 mph61%30.01 "HgN/A
11:25 AM73 °FMild.15 mph65%30.01 "HgN/A
10:55 AM72 °FMild.14 mph65%30.01 "HgN/A
10:25 AM72 °FMild.13 mph65%30.01 "HgN/A
9:55 AM70 °FPartly sunny.15 mph64%30.01 "HgN/A
9:25 AM70 °FPassing clouds.13 mph69%30.01 "HgN/A
8:55 AM66 °FMild.13 mph73%30.04 "HgN/A
8:25 AM64 °FPassing clouds.13 mph73%30.04 "HgN/A
7:55 AM63 °FPassing clouds.14 mph77%30.04 "HgN/A
7:25 AM63 °FMild.13 mph77%30.01 "HgN/A
6:55 AM63 °FMild.14 mph77%30.01 "HgN/A
6:25 AM63 °FMild.12 mph77%30.01 "HgN/A
5:55 AM63 °FPassing clouds.12 mph77%30.01 "HgN/A
5:25 AM63 °FMild.12 mph77%30.01 "HgN/A
4:55 AM63 °FMild.12 mph83%30.01 "HgN/A
4:25 AM63 °FMild.10 mph83%30.01 "HgN/A
3:55 AM64 °FPassing clouds.9 mph78%30.01 "HgN/A
Weather by CustomWeather, © 2014

See weather overviewHow to use our weather pages